Sealyon — 2CGJ2 — position and weather

sailwx.info

Track history (hours):
 
Tides and Currents Weather Stations Pressure Air Temp Water Temp Dewpoint Dewpoint Depression Visibility Wind Speed Wind Dir Waves Ship Positions

Sealyon

Last reported at 2014-Jul-29 04:33 UTC. Time now 2014-Jul-29 04:38 UTC.
Position N 43°16' E 006°40'.

Length 62 m; draft 3.6 m.

Type: Pleasure craft. MMSI: 235072538.

Date/timePositionNaut miles runAvg speedWind from/ knotsBaromVisibWave heightAir tempDewpointWater temp
2014-Jul-29 04:33N 43°16' E 006°40'0 0.0
2014-Jul-29 03:33N 43°16' E 006°40'0 0.0
2014-Jul-29 02:34N 43°16' E 006°40'0 0.0
2014-Jul-29 01:34N 43°16' E 006°40'0 0.0
2014-Jul-29 00:33N 43°16' E 006°40'0 0.0
2014-Jul-28 23:33N 43°16' E 006°40'0 0.0
2014-Jul-28 22:33N 43°16' E 006°40'0 0.0
2014-Jul-28 21:33N 43°16' E 006°40'0 0.0
2014-Jul-28 20:34N 43°16' E 006°40'0 0.0
2014-Jul-28 19:33N 43°16' E 006°40'0 0.0
2014-Jul-28 18:33N 43°16' E 006°40'0 0.0
2014-Jul-28 17:33N 43°16' E 006°40'0 0.0
2014-Jul-28 16:33N 43°16' E 006°40'3 2.9
2014-Jul-28 15:33N 43°13' E 006°40'0 0.0
2014-Jul-28 14:34N 43°13' E 006°40'0 0.1
2014-Jul-28 13:33N 43°14' E 006°40'0 0.0
2014-Jul-28 12:33N 43°14' E 006°40'0 0.0
2014-Jul-28 11:34N 43°14' E 006°40'0 0.0
2014-Jul-28 10:33N 43°14' E 006°40'0 0.0
2014-Jul-28 09:34N 43°14' E 006°40'3 2.5
2014-Jul-28 08:33N 43°15' E 006°43'3 2.9
2014-Jul-28 07:33N 43°16' E 006°39'0 0.0
2014-Jul-28 06:33N 43°16' E 006°39'0 0.0
2014-Jul-28 05:34N 43°16' E 006°39'0 0.0
2014-Jul-28 04:33N 43°16' E 006°39'0 0.0
2014-Jul-28 03:34N 43°16' E 006°39'0 0.0
2014-Jul-28 02:33N 43°16' E 006°39'0 0.0
2014-Jul-28 01:33N 43°16' E 006°39'0 0.0
2014-Jul-28 00:34N 43°16' E 006°39'0 0.0
2014-Jul-27 23:34N 43°16' E 006°39'0 0.0
2014-Jul-27 22:33N 43°16' E 006°39'6 6.5
2014-Jul-27 21:33N 43°20' E 006°46'1312.8
2014-Jul-27 20:34N 43°28' E 007°01'1313.0
2014-Jul-27 19:33N 43°35' E 007°15'9 8.8
2014-Jul-27 18:33N 43°43' E 007°21'0 0.0
2014-Jul-27 17:31N 43°43' E 007°21'0 0.0
2014-Jul-27 16:33N 43°43' E 007°21'0 0.0
2014-Jul-27 15:33N 43°43' E 007°21'0 0.0
2014-Jul-27 14:33N 43°43' E 007°21'0 0.0
2014-Jul-27 13:10N 43°43' E 007°21'0 0.0
2014-Jul-27 12:33N 43°43' E 007°21'0 0.0
2014-Jul-27 11:33N 43°43' E 007°21'0 0.0
2014-Jul-27 10:33N 43°43' E 007°21'0 0.0
2014-Jul-27 09:33N 43°43' E 007°21'10 9.9
2014-Jul-27 08:33N 43°35' E 007°14'9 8.0
2014-Jul-27 07:30N 43°32' E 007°03'0 0.0
2014-Jul-27 06:27N 43°32' E 007°03'0 0.0
2014-Jul-27 05:25N 43°32' E 007°03'0 0.0
2014-Jul-27 04:32N 43°32' E 007°03'0 0.0
2014-Jul-27 03:32N 43°32' E 007°03'0 0.0
2014-Jul-27 02:33N 43°32' E 007°03'0 0.0
2014-Jul-27 01:28N 43°32' E 007°03'0 0.0
2014-Jul-27 00:23N 43°32' E 007°03'0 0.0
2014-Jul-26 23:29N 43°32' E 007°03'0 0.0
2014-Jul-26 22:30N 43°32' E 007°03'0 0.0
2014-Jul-26 21:24N 43°32' E 007°03'0 0.0
2014-Jul-26 20:31N 43°32' E 007°03'0 0.0
2014-Jul-26 19:32N 43°32' E 007°03'0 0.0
2014-Jul-26 18:32N 43°32' E 007°03'0 0.0
2014-Jul-26 17:33N 43°32' E 007°03'0 0.0
2014-Jul-26 16:28N 43°32' E 007°03'0 0.0
2014-Jul-26 15:28N 43°32' E 007°03'0 0.0
2014-Jul-26 14:29N 43°32' E 007°03'0 0.0
2014-Jul-26 13:24N 43°32' E 007°03'0 0.0
2014-Jul-26 12:30N 43°32' E 007°03'0 0.0
2014-Jul-26 11:19N 43°32' E 007°03'0 0.0
2014-Jul-26 10:26N 43°32' E 007°03'0 0.0
2014-Jul-26 09:32N 43°32' E 007°03'0 0.0
2014-Jul-26 08:33N 43°32' E 007°03'0 0.0
2014-Jul-26 07:22N 43°32' E 007°03'0 0.0
2014-Jul-26 06:23N 43°32' E 007°03'0 0.0
2014-Jul-26 05:32N 43°32' E 007°03'0 0.0
2014-Jul-26 04:24N 43°32' E 007°03'0 0.0
2014-Jul-26 03:33N 43°32' E 007°03'0 0.0
2014-Jul-26 02:19N 43°32' E 007°03'0 0.0
2014-Jul-26 01:32N 43°32' E 007°03'0 0.0
2014-Jul-26 00:32N 43°32' E 007°03'0 0.0
2014-Jul-25 22:28N 43°32' E 007°03'0 0.0
2014-Jul-25 21:23N 43°32' E 007°03'0 0.0
2014-Jul-25 20:26N 43°32' E 007°03'0 0.0
2014-Jul-25 19:24N 43°32' E 007°03'0 0.0
2014-Jul-25 18:33N 43°32' E 007°03'0 0.0
2014-Jul-25 17:33N 43°32' E 007°03'0 0.0
2014-Jul-25 16:34N 43°32' E 007°03'0 0.0
2014-Jul-25 15:33N 43°32' E 007°03'0 0.0
2014-Jul-25 14:33N 43°32' E 007°03'0 0.0
2014-Jul-25 13:33N 43°32' E 007°03'0 0.0
2014-Jul-25 12:33N 43°32' E 007°03'0 0.0
2014-Jul-25 11:33N 43°32' E 007°03'0 0.0
2014-Jul-25 10:34N 43°32' E 007°03'0 0.0
2014-Jul-25 09:33N 43°32' E 007°03'0 0.0
2014-Jul-25 08:33N 43°32' E 007°03'0 0.0
2014-Jul-25 07:33N 43°32' E 007°03'0 0.0
2014-Jul-25 06:33N 43°32' E 007°03'0 0.0
2014-Jul-25 05:33N 43°32' E 007°03'0 0.0
2014-Jul-25 04:33N 43°32' E 007°03'0 0.0
2014-Jul-25 03:33N 43°32' E 007°03'0 0.0
2014-Jul-25 02:33N 43°32' E 007°03'0 0.0
2014-Jul-25 01:33N 43°32' E 007°03'0 0.0
2014-Jul-25 00:33N 43°32' E 007°03'0 0.0
2014-Jul-24 23:33N 43°32' E 007°03'0 0.0
2014-Jul-24 22:33N 43°32' E 007°03'0 0.0
2014-Jul-24 21:33N 43°32' E 007°03'0 0.0
2014-Jul-24 20:33N 43°32' E 007°03'0 0.0
2014-Jul-24 19:33N 43°32' E 007°03'1 1.5
2014-Jul-24 18:33N 43°33' E 007°01'5 4.0
2014-Jul-24 17:17N 43°29' E 006°56'0 0.0
2014-Jul-24 16:20N 43°29' E 006°56'0 0.0
2014-Jul-24 15:12N 43°29' E 006°56'0 0.0
2014-Jul-24 14:31N 43°29' E 006°56'6 6.8
2014-Jul-24 13:33N 43°23' E 006°60'4 4.4
2014-Jul-24 12:33N 43°19' E 007°02'1010.2
2014-Jul-24 11:33N 43°25' E 006°51'0 0.1
2014-Jul-24 10:25N 43°25' E 006°51'0 0.0
2014-Jul-24 09:32N 43°25' E 006°51'0 0.0
2014-Jul-24 08:32N 43°25' E 006°51'0 0.0
2014-Jul-24 07:27N 43°25' E 006°51'0 0.0
2014-Jul-24 06:31N 43°25' E 006°51'0 0.0
2014-Jul-24 05:26N 43°25' E 006°51'0 0.0
2014-Jul-24 04:32N 43°25' E 006°51'0 0.0
2014-Jul-24 03:33N 43°25' E 006°51'0 0.0
2014-Jul-24 02:34N 43°25' E 006°51'0 0.0
2014-Jul-24 01:31N 43°25' E 006°51'0 0.0
2014-Jul-24 00:32N 43°25' E 006°51'0 0.0
2014-Jul-23 23:33N 43°25' E 006°51'0 0.0
2014-Jul-23 22:24N 43°25' E 006°51'0 0.0
2014-Jul-23 21:25N 43°25' E 006°51'0 0.0
2014-Jul-23 20:26N 43°25' E 006°51'0 0.0
2014-Jul-23 19:32N 43°25' E 006°51'0 0.0
2014-Jul-23 18:27N 43°25' E 006°51'0 0.0
2014-Jul-23 17:31N 43°25' E 006°51'0 0.0
2014-Jul-23 16:28N 43°25' E 006°51'0 0.0
2014-Jul-23 15:32N 43°25' E 006°51'0 0.0
2014-Jul-23 14:33N 43°25' E 006°51'0 0.0
2014-Jul-23 13:33N 43°25' E 006°51'0 0.0
2014-Jul-23 12:31N 43°25' E 006°51'0 0.0
2014-Jul-23 11:29N 43°25' E 006°51'1 0.8
2014-Jul-23 10:31N 43°25' E 006°52'0 0.0
2014-Jul-23 09:32N 43°25' E 006°52'0 0.0
2014-Jul-23 08:33N 43°25' E 006°52'8 8.4
2014-Jul-23 07:33N 43°29' E 007°02'3 3.0
2014-Jul-23 06:29N 43°32' E 007°03'0 0.0
2014-Jul-23 05:30N 43°32' E 007°03'0 0.0
2014-Jul-23 04:31N 43°32' E 007°03'0 0.0
2014-Jul-23 03:25N 43°32' E 007°03'0 0.0
2014-Jul-23 02:32N 43°32' E 007°03'0 0.0
2014-Jul-23 01:33N 43°32' E 007°03'0 0.0
2014-Jul-23 00:33N 43°32' E 007°03'0 0.0
2014-Jul-22 23:28N 43°32' E 007°03'0 0.0
2014-Jul-22 22:32N 43°32' E 007°03'0 0.0
2014-Jul-22 21:29N 43°32' E 007°03'0 0.0
2014-Jul-22 20:30N 43°32' E 007°03'0 0.0
2014-Jul-22 19:25N 43°32' E 007°03'0 0.0
2014-Jul-22 18:19N 43°32' E 007°03'0 0.0
2014-Jul-22 17:26N 43°32' E 007°03'0 0.0
2014-Jul-22 16:33N 43°32' E 007°03'0 0.0
2014-Jul-22 15:33N 43°32' E 007°03'0 0.0
2014-Jul-22 14:22N 43°32' E 007°03'0 0.0
2014-Jul-22 13:05N 43°32' E 007°03'0 0.0
2014-Jul-22 12:29N 43°32' E 007°03'0 0.0
2014-Jul-22 11:30N 43°32' E 007°03'0 0.0
2014-Jul-22 10:31N 43°32' E 007°03'0 0.0
2014-Jul-22 09:31N 43°32' E 007°03'0 0.0
2014-Jul-22 08:32N 43°32' E 007°03'2 1.9
2014-Jul-22 07:33N 43°30' E 007°04'3 1.2
2014-Jul-22 05:15N 43°32' E 007°02'0 0.0
2014-Jul-22 03:28N 43°32' E 007°02'0 0.0
2014-Jul-22 01:11N 43°32' E 007°02'0 0.0
2014-Jul-22 00:12N 43°32' E 007°02'0 0.0
2014-Jul-21 20:26N 43°32' E 007°02'0 0.0
2014-Jul-21 20:09N 43°32' E 007°02'0 0.0
2014-Jul-21 19:15N 43°32' E 007°02'0 0.0
2014-Jul-21 18:28N 43°32' E 007°02'0 0.0
2014-Jul-21 17:34N 43°32' E 007°02'0 0.0
2014-Jul-21 16:33N 43°32' E 007°02'3 2.7
2014-Jul-21 15:33N 43°30' E 007°03'1313.0
2014-Jul-21 14:34N 43°38' E 007°16'4 4.4
2014-Jul-21 13:34N 43°42' E 007°19'0 0.0
2014-Jul-21 12:33N 43°42' E 007°19'0 0.0
2014-Jul-21 11:33N 43°42' E 007°19'0 0.0
2014-Jul-21 10:33N 43°42' E 007°19'0 0.0
2014-Jul-21 09:33N 43°42' E 007°19'0 0.0
2014-Jul-21 08:32N 43°42' E 007°19'0 0.0
2014-Jul-21 07:34N 43°42' E 007°19'0 0.0
2014-Jul-21 06:34N 43°42' E 007°19'0 0.0
2014-Jul-21 05:33N 43°42' E 007°19'0 0.0
2014-Jul-21 04:33N 43°42' E 007°19'0 0.0
2014-Jul-21 03:33N 43°42' E 007°19'0 0.0
2014-Jul-21 02:33N 43°42' E 007°19'0 0.0
2014-Jul-21 01:34N 43°42' E 007°19'0 0.0
2014-Jul-21 00:33N 43°42' E 007°19'0 0.0
2014-Jul-20 23:34N 43°42' E 007°19'0 0.0
2014-Jul-20 22:33N 43°42' E 007°19'0 0.0
2014-Jul-20 21:34N 43°42' E 007°19'0 0.0
2014-Jul-20 20:34N 43°42' E 007°19'0 0.0
2014-Jul-20 19:34N 43°42' E 007°19'0 0.0
2014-Jul-20 18:34N 43°42' E 007°19'0 0.0
2014-Jul-20 17:33N 43°42' E 007°19'0 0.0
2014-Jul-20 16:13N 43°42' E 007°19'0 0.0
2014-Jul-20 15:33N 43°42' E 007°19'2 1.9
2014-Jul-20 14:30N 43°43' E 007°21'0 0.0
2014-Jul-20 12:32N 43°43' E 007°21'0 0.0
2014-Jul-20 11:20N 43°43' E 007°21'0 0.0
2014-Jul-20 02:20N 43°43' E 007°21'0 0.0
2014-Jul-20 01:21N 43°43' E 007°21'0 0.0
2014-Jul-20 00:16N 43°43' E 007°21'0 0.0
2014-Jul-19 23:10N 43°43' E 007°21'0 0.0
2014-Jul-19 22:29N 43°43' E 007°21'0 0.0
2014-Jul-19 21:18N 43°43' E 007°21'0 0.0
2014-Jul-19 20:30N 43°43' E 007°21'0 0.0
2014-Jul-19 19:32N 43°43' E 007°21'2 0.4
2014-Jul-19 15:09N 43°41' E 007°21'0 0.0
2014-Jul-19 13:10N 43°41' E 007°21'0 0.0
2014-Jul-19 12:29N 43°41' E 007°21'0 0.0
2014-Jul-19 11:32N 43°41' E 007°21'0 0.0
2014-Jul-19 10:24N 43°41' E 007°21'0 0.0
2014-Jul-19 09:25N 43°41' E 007°21'0 0.0
2014-Jul-19 08:11N 43°41' E 007°21'0 0.0
2014-Jul-19 07:29N 43°41' E 007°21'0 0.0
2014-Jul-19 06:33N 43°41' E 007°21'  
Track history (hours):
 
Tides and Currents Weather Stations Pressure Air Temp Water Temp Dewpoint Dewpoint Depression Visibility Wind Speed Wind Dir Waves Ship Positions

Sealyon

Last reported at 2014-Jul-29 04:33 UTC. Time now 2014-Jul-29 04:38 UTC.
Position N 43°16' E 006°40'.

Length 62 m; draft 3.6 m.

Type: Pleasure craft. MMSI: 235072538.

Date/timePositionNaut miles runAvg speedWind from/ knotsBaromVisibWave heightAir tempDewpointWater temp
2014-Jul-29 04:33N 43°16' E 006°40'0 0.0
2014-Jul-29 03:33N 43°16' E 006°40'0 0.0
2014-Jul-29 02:34N 43°16' E 006°40'0 0.0
2014-Jul-29 01:34N 43°16' E 006°40'0 0.0
2014-Jul-29 00:33N 43°16' E 006°40'0 0.0
2014-Jul-28 23:33N 43°16' E 006°40'0 0.0
2014-Jul-28 22:33N 43°16' E 006°40'0 0.0
2014-Jul-28 21:33N 43°16' E 006°40'0 0.0
2014-Jul-28 20:34N 43°16' E 006°40'0 0.0
2014-Jul-28 19:33N 43°16' E 006°40'0 0.0
2014-Jul-28 18:33N 43°16' E 006°40'0 0.0
2014-Jul-28 17:33N 43°16' E 006°40'0 0.0
2014-Jul-28 16:33N 43°16' E 006°40'3 2.9
2014-Jul-28 15:33N 43°13' E 006°40'0 0.0
2014-Jul-28 14:34N 43°13' E 006°40'0 0.1
2014-Jul-28 13:33N 43°14' E 006°40'0 0.0
2014-Jul-28 12:33N 43°14' E 006°40'0 0.0
2014-Jul-28 11:34N 43°14' E 006°40'0 0.0
2014-Jul-28 10:33N 43°14' E 006°40'0 0.0
2014-Jul-28 09:34N 43°14' E 006°40'3 2.5
2014-Jul-28 08:33N 43°15' E 006°43'3 2.9
2014-Jul-28 07:33N 43°16' E 006°39'0 0.0
2014-Jul-28 06:33N 43°16' E 006°39'0 0.0
2014-Jul-28 05:34N 43°16' E 006°39'0 0.0
2014-Jul-28 04:33N 43°16' E 006°39'0 0.0
2014-Jul-28 03:34N 43°16' E 006°39'0 0.0
2014-Jul-28 02:33N 43°16' E 006°39'0 0.0
2014-Jul-28 01:33N 43°16' E 006°39'0 0.0
2014-Jul-28 00:34N 43°16' E 006°39'0 0.0
2014-Jul-27 23:34N 43°16' E 006°39'0 0.0
2014-Jul-27 22:33N 43°16' E 006°39'6 6.5
2014-Jul-27 21:33N 43°20' E 006°46'1312.8
2014-Jul-27 20:34N 43°28' E 007°01'1313.0
2014-Jul-27 19:33N 43°35' E 007°15'9 8.8
2014-Jul-27 18:33N 43°43' E 007°21'0 0.0
2014-Jul-27 17:31N 43°43' E 007°21'0 0.0
2014-Jul-27 16:33N 43°43' E 007°21'0 0.0
2014-Jul-27 15:33N 43°43' E 007°21'0 0.0
2014-Jul-27 14:33N 43°43' E 007°21'0 0.0
2014-Jul-27 13:10N 43°43' E 007°21'0 0.0
2014-Jul-27 12:33N 43°43' E 007°21'0 0.0
2014-Jul-27 11:33N 43°43' E 007°21'0 0.0
2014-Jul-27 10:33N 43°43' E 007°21'0 0.0
2014-Jul-27 09:33N 43°43' E 007°21'10 9.9
2014-Jul-27 08:33N 43°35' E 007°14'9 8.0
2014-Jul-27 07:30N 43°32' E 007°03'0 0.0
2014-Jul-27 06:27N 43°32' E 007°03'0 0.0
2014-Jul-27 05:25N 43°32' E 007°03'0 0.0
2014-Jul-27 04:32N 43°32' E 007°03'0 0.0
2014-Jul-27 03:32N 43°32' E 007°03'0 0.0
2014-Jul-27 02:33N 43°32' E 007°03'0 0.0
2014-Jul-27 01:28N 43°32' E 007°03'0 0.0
2014-Jul-27 00:23N 43°32' E 007°03'0 0.0
2014-Jul-26 23:29N 43°32' E 007°03'0 0.0
2014-Jul-26 22:30N 43°32' E 007°03'0 0.0
2014-Jul-26 21:24N 43°32' E 007°03'0 0.0
2014-Jul-26 20:31N 43°32' E 007°03'0 0.0
2014-Jul-26 19:32N 43°32' E 007°03'0 0.0
2014-Jul-26 18:32N 43°32' E 007°03'0 0.0
2014-Jul-26 17:33N 43°32' E 007°03'0 0.0
2014-Jul-26 16:28N 43°32' E 007°03'0 0.0
2014-Jul-26 15:28N 43°32' E 007°03'0 0.0
2014-Jul-26 14:29N 43°32' E 007°03'0 0.0
2014-Jul-26 13:24N 43°32' E 007°03'0 0.0
2014-Jul-26 12:30N 43°32' E 007°03'0 0.0
2014-Jul-26 11:19N 43°32' E 007°03'0 0.0
2014-Jul-26 10:26N 43°32' E 007°03'0 0.0
2014-Jul-26 09:32N 43°32' E 007°03'0 0.0
2014-Jul-26 08:33N 43°32' E 007°03'0 0.0
2014-Jul-26 07:22N 43°32' E 007°03'0 0.0
2014-Jul-26 06:23N 43°32' E 007°03'0 0.0
2014-Jul-26 05:32N 43°32' E 007°03'0 0.0
2014-Jul-26 04:24N 43°32' E 007°03'0 0.0
2014-Jul-26 03:33N 43°32' E 007°03'0 0.0
2014-Jul-26 02:19N 43°32' E 007°03'0 0.0
2014-Jul-26 01:32N 43°32' E 007°03'0 0.0
2014-Jul-26 00:32N 43°32' E 007°03'0 0.0
2014-Jul-25 22:28N 43°32' E 007°03'0 0.0
2014-Jul-25 21:23N 43°32' E 007°03'0 0.0
2014-Jul-25 20:26N 43°32' E 007°03'0 0.0
2014-Jul-25 19:24N 43°32' E 007°03'0 0.0
2014-Jul-25 18:33N 43°32' E 007°03'0 0.0
2014-Jul-25 17:33N 43°32' E 007°03'0 0.0
2014-Jul-25 16:34N 43°32' E 007°03'0 0.0
2014-Jul-25 15:33N 43°32' E 007°03'0 0.0
2014-Jul-25 14:33N 43°32' E 007°03'0 0.0
2014-Jul-25 13:33N 43°32' E 007°03'0 0.0
2014-Jul-25 12:33N 43°32' E 007°03'0 0.0
2014-Jul-25 11:33N 43°32' E 007°03'0 0.0
2014-Jul-25 10:34N 43°32' E 007°03'0 0.0
2014-Jul-25 09:33N 43°32' E 007°03'0 0.0
2014-Jul-25 08:33N 43°32' E 007°03'0 0.0
2014-Jul-25 07:33N 43°32' E 007°03'0 0.0
2014-Jul-25 06:33N 43°32' E 007°03'0 0.0
2014-Jul-25 05:33N 43°32' E 007°03'0 0.0
2014-Jul-25 04:33N 43°32' E 007°03'0 0.0
2014-Jul-25 03:33N 43°32' E 007°03'0 0.0
2014-Jul-25 02:33N 43°32' E 007°03'0 0.0
2014-Jul-25 01:33N 43°32' E 007°03'0 0.0
2014-Jul-25 00:33N 43°32' E 007°03'0 0.0
2014-Jul-24 23:33N 43°32' E 007°03'0 0.0
2014-Jul-24 22:33N 43°32' E 007°03'0 0.0
2014-Jul-24 21:33N 43°32' E 007°03'0 0.0
2014-Jul-24 20:33N 43°32' E 007°03'0 0.0
2014-Jul-24 19:33N 43°32' E 007°03'1 1.5
2014-Jul-24 18:33N 43°33' E 007°01'5 4.0
2014-Jul-24 17:17N 43°29' E 006°56'0 0.0
2014-Jul-24 16:20N 43°29' E 006°56'0 0.0
2014-Jul-24 15:12N 43°29' E 006°56'0 0.0
2014-Jul-24 14:31N 43°29' E 006°56'6 6.8
2014-Jul-24 13:33N 43°23' E 006°60'4 4.4
2014-Jul-24 12:33N 43°19' E 007°02'1010.2
2014-Jul-24 11:33N 43°25' E 006°51'0 0.1
2014-Jul-24 10:25N 43°25' E 006°51'0 0.0
2014-Jul-24 09:32N 43°25' E 006°51'0 0.0
2014-Jul-24 08:32N 43°25' E 006°51'0 0.0
2014-Jul-24 07:27N 43°25' E 006°51'0 0.0
2014-Jul-24 06:31N 43°25' E 006°51'0 0.0
2014-Jul-24 05:26N 43°25' E 006°51'0 0.0
2014-Jul-24 04:32N 43°25' E 006°51'0 0.0
2014-Jul-24 03:33N 43°25' E 006°51'0 0.0
2014-Jul-24 02:34N 43°25' E 006°51'0 0.0
2014-Jul-24 01:31N 43°25' E 006°51'0 0.0
2014-Jul-24 00:32N 43°25' E 006°51'0 0.0
2014-Jul-23 23:33N 43°25' E 006°51'0 0.0
2014-Jul-23 22:24N 43°25' E 006°51'0 0.0
2014-Jul-23 21:25N 43°25' E 006°51'0 0.0
2014-Jul-23 20:26N 43°25' E 006°51'0 0.0
2014-Jul-23 19:32N 43°25' E 006°51'0 0.0
2014-Jul-23 18:27N 43°25' E 006°51'0 0.0
2014-Jul-23 17:31N 43°25' E 006°51'0 0.0
2014-Jul-23 16:28N 43°25' E 006°51'0 0.0
2014-Jul-23 15:32N 43°25' E 006°51'0 0.0
2014-Jul-23 14:33N 43°25' E 006°51'0 0.0
2014-Jul-23 13:33N 43°25' E 006°51'0 0.0
2014-Jul-23 12:31N 43°25' E 006°51'0 0.0
2014-Jul-23 11:29N 43°25' E 006°51'1 0.8
2014-Jul-23 10:31N 43°25' E 006°52'0 0.0
2014-Jul-23 09:32N 43°25' E 006°52'0 0.0
2014-Jul-23 08:33N 43°25' E 006°52'8 8.4
2014-Jul-23 07:33N 43°29' E 007°02'3 3.0
2014-Jul-23 06:29N 43°32' E 007°03'0 0.0
2014-Jul-23 05:30N 43°32' E 007°03'0 0.0
2014-Jul-23 04:31N 43°32' E 007°03'0 0.0
2014-Jul-23 03:25N 43°32' E 007°03'0 0.0
2014-Jul-23 02:32N 43°32' E 007°03'0 0.0
2014-Jul-23 01:33N 43°32' E 007°03'0 0.0
2014-Jul-23 00:33N 43°32' E 007°03'0 0.0
2014-Jul-22 23:28N 43°32' E 007°03'0 0.0
2014-Jul-22 22:32N 43°32' E 007°03'0 0.0
2014-Jul-22 21:29N 43°32' E 007°03'0 0.0
2014-Jul-22 20:30N 43°32' E 007°03'0 0.0
2014-Jul-22 19:25N 43°32' E 007°03'0 0.0
2014-Jul-22 18:19N 43°32' E 007°03'0 0.0
2014-Jul-22 17:26N 43°32' E 007°03'0 0.0
2014-Jul-22 16:33N 43°32' E 007°03'0 0.0
2014-Jul-22 15:33N 43°32' E 007°03'0 0.0
2014-Jul-22 14:22N 43°32' E 007°03'0 0.0
2014-Jul-22 13:05N 43°32' E 007°03'0 0.0
2014-Jul-22 12:29N 43°32' E 007°03'0 0.0
2014-Jul-22 11:30N 43°32' E 007°03'0 0.0
2014-Jul-22 10:31N 43°32' E 007°03'0 0.0
2014-Jul-22 09:31N 43°32' E 007°03'0 0.0
2014-Jul-22 08:32N 43°32' E 007°03'2 1.9
2014-Jul-22 07:33N 43°30' E 007°04'3 1.2
2014-Jul-22 05:15N 43°32' E 007°02'0 0.0
2014-Jul-22 03:28N 43°32' E 007°02'0 0.0
2014-Jul-22 01:11N 43°32' E 007°02'0 0.0
2014-Jul-22 00:12N 43°32' E 007°02'0 0.0
2014-Jul-21 20:26N 43°32' E 007°02'0 0.0
2014-Jul-21 20:09N 43°32' E 007°02'0 0.0
2014-Jul-21 19:15N 43°32' E 007°02'0 0.0
2014-Jul-21 18:28N 43°32' E 007°02'0 0.0
2014-Jul-21 17:34N 43°32' E 007°02'0 0.0
2014-Jul-21 16:33N 43°32' E 007°02'3 2.7
2014-Jul-21 15:33N 43°30' E 007°03'1313.0
2014-Jul-21 14:34N 43°38' E 007°16'4 4.4
2014-Jul-21 13:34N 43°42' E 007°19'0 0.0
2014-Jul-21 12:33N 43°42' E 007°19'0 0.0
2014-Jul-21 11:33N 43°42' E 007°19'0 0.0
2014-Jul-21 10:33N 43°42' E 007°19'0 0.0
2014-Jul-21 09:33N 43°42' E 007°19'0 0.0
2014-Jul-21 08:32N 43°42' E 007°19'0 0.0
2014-Jul-21 07:34N 43°42' E 007°19'0 0.0
2014-Jul-21 06:34N 43°42' E 007°19'0 0.0
2014-Jul-21 05:33N 43°42' E 007°19'0 0.0
2014-Jul-21 04:33N 43°42' E 007°19'0 0.0
2014-Jul-21 03:33N 43°42' E 007°19'0 0.0
2014-Jul-21 02:33N 43°42' E 007°19'0 0.0
2014-Jul-21 01:34N 43°42' E 007°19'0 0.0
2014-Jul-21 00:33N 43°42' E 007°19'0 0.0
2014-Jul-20 23:34N 43°42' E 007°19'0 0.0
2014-Jul-20 22:33N 43°42' E 007°19'0 0.0
2014-Jul-20 21:34N 43°42' E 007°19'0 0.0
2014-Jul-20 20:34N 43°42' E 007°19'0 0.0
2014-Jul-20 19:34N 43°42' E 007°19'0 0.0
2014-Jul-20 18:34N 43°42' E 007°19'0 0.0
2014-Jul-20 17:33N 43°42' E 007°19'0 0.0
2014-Jul-20 16:13N 43°42' E 007°19'0 0.0
2014-Jul-20 15:33N 43°42' E 007°19'2 1.9
2014-Jul-20 14:30N 43°43' E 007°21'0 0.0
2014-Jul-20 12:32N 43°43' E 007°21'0 0.0
2014-Jul-20 11:20N 43°43' E 007°21'0 0.0
2014-Jul-20 02:20N 43°43' E 007°21'0 0.0
2014-Jul-20 01:21N 43°43' E 007°21'0 0.0
2014-Jul-20 00:16N 43°43' E 007°21'0 0.0
2014-Jul-19 23:10N 43°43' E 007°21'0 0.0
2014-Jul-19 22:29N 43°43' E 007°21'0 0.0
2014-Jul-19 21:18N 43°43' E 007°21'0 0.0
2014-Jul-19 20:30N 43°43' E 007°21'0 0.0
2014-Jul-19 19:32N 43°43' E 007°21'2 0.4
2014-Jul-19 15:09N 43°41' E 007°21'0 0.0
2014-Jul-19 13:10N 43°41' E 007°21'0 0.0
2014-Jul-19 12:29N 43°41' E 007°21'0 0.0
2014-Jul-19 11:32N 43°41' E 007°21'0 0.0
2014-Jul-19 10:24N 43°41' E 007°21'0 0.0
2014-Jul-19 09:25N 43°41' E 007°21'0 0.0
2014-Jul-19 08:11N 43°41' E 007°21'0 0.0
2014-Jul-19 07:29N 43°41' E 007°21'0 0.0
2014-Jul-19 06:33N 43°41' E 007°21'  

Dump ship's entire track history